Racecast

AIA Division III State Cross Country

Cave Creek Golf Course · 5000m · Girls · Compiled · AZ

157 runners from 1 division

These divisions were run separately. This is how their times compare, not how they finished — the places and scores below were never contested.

View full meet →

Team scores

Place Team Points 12345 67
1 Rio Rico (AZ) 89 1 8 17 29 34 44
2 Mingus Union (AZ) 131 5 9 28 36 53 54 86
3 Page (AZ) 150 14 18 32 37 49 70
4 Ganado (AZ) 150 2 3 30 42 73 92 105
5 Tuba City (AZ) 171 6 19 23 60 63 75 78
6 Cactus (AZ) 201 16 27 50 52 56 112 120
7 Monument Valley (AZ) 211 10 11 41 65 84 87 91
8 Window Rock (AZ) 214 20 24 43 59 68 99
9 Chinle (AZ) 221 7 35 47 58 74 80 101
10 Fountain Hills (AZ) 227 4 26 33 81 83 85 94
11 Tempe (AZ) 246 31 39 46 61 69 72 76
12 Safford (AZ) 272 38 45 48 62 79 118
13 Winslow (AZ) 328 22 55 66 89 96 108 109
14 Sahuarita (AZ) 386 21 51 64 115 135 138
15 Payson (AZ) 445 25 71 106 121 122 125 143
16 Seton Catholic (AZ) 448 40 88 102 107 111 140
17 Estrella Foothills (AZ) 450 13 98 104 116 119 127 128
18 Florence (AZ) 453 12 57 124 129 131 139 142
19 Apache Junction (AZ) 465 15 97 100 123 130 141 145
20 Douglas (AZ) 511 67 82 103 126 133 137
21 Empire (AZ) 531 77 110 113 114 117 132 134
22 Wickenburg (AZ) 558 90 93 95 136 144

Not scored, fewer than five finishers: River Valley (1), Amphitheater (1), Lee Williams (1), Blue Ridge (1), Catalina (1), Palo Verde Magnet (1), Chino Valley (1), St Mary's Catholic (1), Coolidge (1), Sabino (1), Walden Grove (1), Window Rock (1)

Results

Place Athlete Grade School Time Rating Points Actual race
1 Allie Schadler 9 Rio Rico (AZ) 1 18:38.2 137.4 1 1
2 Daangoiina Haven 10 Ganado (AZ) 1 18:58.2 135.0 2 2
3 Nikesha Eagleman 10 Ganado (AZ) 2 18:58.2 135.0 3 3
4 Sierra Jarriel 10 Fountain Hills (AZ) 1 19:17.1 132.9 4 4
5 Justine Taylor 12 Mingus Union (AZ) 1 19:18.9 132.7 5 5
6 Brianna Loughran 12 Tuba City (AZ) 1 19:33.3 131.1 6 6
7 Tamarie Tracey 12 Chinle (AZ) 1 19:49.2 129.3 7 7
8 Marley Henson 12 Rio Rico (AZ) 2 19:54.3 128.8 8 8
9 Courtney Lewis 10 River Valley (CA) 1 19:56.3 128.6 9
10 Monica Soliz 12 Mingus Union (AZ) 2 20:08.3 127.3 9 10
11 Shayla Tate 10 Monument Valley (AZ) 1 20:13.5 126.8 10 11
12 Tripper Tate 9 Monument Valley (AZ) 2 20:21.3 126.0 11 12
13 Johanna Newman 11 Florence (AL) 1 20:31.4 125.0 12 13
14 Briana Alvarez 10 Estrella Foothills (AZ) 1 20:35.8 124.5 13 14
15 Jordan Roskelley 11 Page (AZ) 1 20:36.6 124.5 14 15
16 Allyssa Willis 11 Apache Junction (AZ) 1 20:36.8 124.4 15 16
17 Alexis Wilkes 9 Cactus (AZ) 1 20:40.0 124.1 16 17
18 Edith Arvizu 12 Rio Rico (AZ) 3 20:40.1 124.1 17 18
19 Lara Yazzie 10 Page (AZ) 2 20:43.4 123.8 18 19
20 Chelsea Shepperd 12 Tuba City (AZ) 2 20:44.6 123.7 19 20
21 Chamique Dubois 9 Window Rock (AZ) 1 20:45.8 123.5 20 21
22 Emily Bliven 11 Sahuarita (AZ) 1 20:46.8 123.5 21 22
23 Brittney Curley 11 Winslow (AZ) 1 20:53.6 122.8 22 23
24 Darshina Yazzie 11 Tuba City (AZ) 3 20:54.8 122.7 23 24
25 Hannah Smiley 9 Window Rock (AZ) 2 20:55.4 24 25
26 Mariah Zavala 12 Amphitheater (AZ) 1 20:59.2 122.3 26
27 Abby Greenleaf 10 Payson (UT) 1 21:01.8 122.0 25 27
28 Erica Yost 9 Fountain Hills (AZ) 2 21:04.2 121.8 26 28
29 Kenzie Fitzgerald 11 Cactus (AZ) 2 21:05.3 121.7 27 29
30 Kelli Balensky 10 Mingus Union (AZ) 3 21:05.5 121.7 28 30
31 Halle Dewitt 9 Rio Rico (AZ) 4 21:07.7 121.5 29 31
32 Shamiqua Nez 9 Ganado (AZ) 3 21:09.2 121.3 30 32
33 Amy Bello 12 Tempe (AZ) 1 21:10.9 121.2 31 33
34 Tomeka Church 12 Page (AZ) 3 21:11.4 121.1 32 34
35 Kara Swenson 10 Lee Williams (AZ) 1 21:16.7 120.6 35
36 Brooke Yost 11 Fountain Hills (AZ) 3 21:17.7 120.5 33 36
37 Marielena Valencia 11 Rio Rico (AZ) 5 21:17.9 120.5 34 37
38 Quannah Ryan 9 Chinle (AZ) 2 21:28.4 119.5 35 38
39 Sienna Gehl 12 Mingus Union (AZ) 4 21:29.7 119.4 36 39
40 Aniya Nez 10 Page (AZ) 4 21:29.7 119.4 37 40
41 Trina Fox 12 Safford (AZ) 1 21:37.2 118.7 38 41
42 Alexis Blanc 10 Tempe (AZ) 2 21:37.4 118.7 39 42
43 Sarah Naldo 10 Seton Catholic (OH) 1 21:37.8 118.7 40 43
44 Morgan Benton 9 Monument Valley (AZ) 3 21:42.1 118.3 41 44
45 Mindi Lee 11 Ganado (AZ) 4 21:43.9 118.1 42 45
46 Danielle Smiley 11 Window Rock (AZ) 3 21:43.9 118.1 43 46
47 Emily Vega 11 Rio Rico (AZ) 6 21:44.8 118.1 44 47
48 Kaitlyn MCDougal 9 Safford (AZ) 2 21:45.6 45 48
49 Fatima Islas 11 Tempe (AZ) 3 21:47.8 117.8 46 49
50 Alison Johnson 11 Chinle (AZ) 3 21:48.7 117.7 47 50
51 Joie Lopez 10 Safford (AZ) 3 21:51.3 48 51
52 Julia Wagenfehr 12 Blue Ridge (AZ) 1 21:53.8 117.3 52
53 Mia Smith 10 Page (AZ) 5 21:54.7 117.2 49 53
54 Drianna Mustin 10 Cactus (AZ) 3 21:54.8 117.2 50 54
55 Natalie Ochoa 9 Sahuarita (AZ) 2 21:55.9 117.1 51 55
56 Addy King 9 Cactus (AZ) 4 21:56.8 117.0 52 56
57 Cassia Gehl 9 Mingus Union (AZ) 5 21:59.1 116.8 53 57
58 Anissa Urueta 11 Mingus Union (AZ) 6 22:01.3 116.6 54 58
59 Dalisa Yellowhair 10 Winslow (AZ) 2 22:03.8 116.4 55 59
60 Libby Rath 11 Cactus (AZ) 5 22:04.4 116.3 56 60
61 Savanna Mercado 11 Florence (AL) 2 22:06.1 116.2 57 61
62 Britney Curley 11 Chinle (AZ) 4 22:06.6 116.1 58 62
63 Miriam Deschine 12 Window Rock (AZ) 4 22:06.8 116.1 59 63
64 Kristen Henderson 11 Tuba City (AZ) 4 22:11.0 115.8 60 64
65 Daisy Lopez 10 Tempe (AZ) 4 22:11.8 115.7 61 65
66 Sarah Earl 9 Safford (AZ) 4 22:12.7 115.6 62 66
67 Summer Yazzie 9 Tuba City (AZ) 5 22:12.8 115.6 63 67
68 Victoria Rayan 9 Sahuarita (AZ) 3 22:13.2 115.6 64 68
69 Tyra Eve Johnson 9 Monument Valley (AZ) 4 22:18.0 115.2 65 69
70 Jasmine Barton 10 Winslow (AZ) 3 22:18.2 115.2 66 70
71 Karla Loreto 12 Douglas (NV) 1 22:18.3 115.1 67 71
72 Shoshanah Deschine 10 Window Rock (AZ) 5 22:18.3 115.1 68 72
73 Lizbeth Lopez 12 Tempe (AZ) 5 22:20.3 115.0 69 73
74 Victoria Benally 12 Page (AZ) 6 22:21.4 114.9 70 74
75 MacKenzie Mann 10 Payson (UT) 2 22:22.3 114.8 71 75
76 Sabrina Robles 10 Tempe (AZ) 6 22:22.9 114.8 72 76
77 Chelsea Claw 12 Ganado (AZ) 5 22:24.1 114.7 73 77
78 Tameeka Bahe 11 Chinle (AZ) 5 22:25.0 114.6 74 78
79 Veronica Valenzuela 11 Catalina (AZ) 1 22:27.1 114.4 79
80 Kandice Tanner 9 Tuba City (AZ) 6 22:28.7 114.3 75 80
81 Victoria Lebario 11 Tempe (AZ) 7 22:30.1 114.2 76 81
82 Ashley Quiros 10 Palo Verde Magnet (AZ) 1 22:37.4 113.5 82
83 Kylie McGinnis 10 Empire (AZ) 1 22:37.6 113.5 77 83
84 Cheyanne Penton 11 Chino Valley (AZ) 1 22:39.8 113.3 84
85 Rhiannon Worker 9 Tuba City (AZ) 7 22:42.5 113.1 78 85
86 Catherine Whitfield 11 St Mary's Catholic (AZ) 1 22:45.7 112.9 86
87 Stephanie Adams 12 Safford (AZ) 5 22:46.3 79 87
88 Brittany Begay 12 Chinle (AZ) 6 22:50.6 112.5 80 88
89 Taylor Johnson 11 Fountain Hills (AZ) 4 22:54.8 112.1 81 89
90 Tyrza Van Horn 12 Coolidge (AZ) 1 22:55.0 112.1 90
91 Kiara Hernandez 9 Douglas (NV) 2 22:56.5 112.0 82 91
92 Danica Kerr 9 Fountain Hills (AZ) 5 22:58.9 111.8 83 92
93 Crystal Oliver 9 Monument Valley (AZ) 5 23:04.5 111.4 84 93
94 Emmie Lawrence 11 Fountain Hills (AZ) 6 23:11.1 110.8 85 94
95 Maribel Cruz 10 Mingus Union (AZ) 7 23:12.3 110.7 86 95
96 Nizhoni Cly 9 Monument Valley (AZ) 6 23:12.6 110.7 87 96
97 Cecilia Hemingway 12 Seton Catholic (OH) 2 23:13.0 110.7 88 97
98 Michelle Howard 10 Sabino (AZ) 1 23:13.2 110.7 98
99 Jaycey Sangster 11 Winslow (AZ) 4 23:14.6 110.6 89 99
100 Esmeralda Ruiz 11 Wickenburg (AZ) 1 23:16.3 110.4 90 100
101 Julianna Hudgins 9 Monument Valley (AZ) 7 23:17.9 110.3 91 101
102 Nizhoni Golden 9 Ganado (AZ) 6 23:18.6 110.2 92 102
103 Zamarieth Benavides 11 Wickenburg (AZ) 2 23:22.8 109.9 93 103
104 Hope Brecto 9 Fountain Hills (AZ) 7 23:28.8 109.5 94 104
105 Melodie Prevost 11 Wickenburg (AZ) 3 23:31.4 109.3 95 105
106 Shalyn Joe 12 Winslow (AZ) 5 23:33.4 109.1 96 106
107 Jessica Whitten 11 Apache Junction (AZ) 2 23:33.8 109.1 97 107
108 Tyler Flowers 9 Estrella Foothills (AZ) 2 23:34.5 109.0 98 108
109 Briana Valenzuela 9 Walden Grove (AZ) 1 23:36.9 108.9 109
110 Arileauna Davis 12 Window Rock (AZ) 6 23:37.6 108.8 99 110
111 Sarah Jones 11 Apache Junction (AZ) 3 23:38.8 108.7 100 111
112 Sasha Araba 9 Chinle (AZ) 7 23:47.3 108.1 101 112
113 Kebra Faulkner 12 Seton Catholic (OH) 3 23:49.1 107.9 102 113
114 Kaycie Cormier 9 Douglas (NV) 3 23:55.3 107.5 103 114
115 Marcella Gutierrez 12 Estrella Foothills (AZ) 3 23:56.3 107.4 104 115
116 Kaya Bigwater 12 Ganado (AZ) 7 24:04.3 106.8 105 116
117 Anna Schouten 10 Payson (UT) 3 24:09.2 106.5 106 117
118 Lauren Shapiro 9 Seton Catholic (OH) 4 24:11.2 106.3 107 118
119 Jade Goodwill 9 Window Rock (AZ) 1 24:15.2 106.0 119
120 Jamie Brady 9 Winslow (AZ) 6 24:24.4 105.4 108 120
121 Danielle Reese 11 Winslow (AZ) 7 24:25.9 105.3 109 121
122 Amanda Marks 9 Empire (AZ) 2 24:28.6 105.1 110 122
123 Halle Brady 12 Seton Catholic (OH) 5 24:43.2 104.1 111 123
124 Lexie Boschi 11 Cactus (AZ) 6 24:59.9 102.9 112 124
125 Aly Lichtas 11 Empire (AZ) 3 25:03.2 102.7 113 125
126 Jessica Ledesma 10 Empire (AZ) 4 25:04.1 102.7 114 126
127 Cristabel Gallego 9 Sahuarita (AZ) 4 25:10.0 102.3 115 127
128 Lindsay Hazlett 9 Estrella Foothills (AZ) 4 25:11.0 102.2 116 128
129 Catalina Mitchell 10 Empire (AZ) 5 25:15.2 101.9 117 129
130 Marlena Sanchez 9 Safford (AZ) 6 25:15.6 101.9 118 130
131 Christel Vuoernheimo 12 Estrella Foothills (AZ) 5 25:18.4 101.7 119 131
132 Liz Facio 12 Cactus (AZ) 7 25:29.6 100.9 120 132
133 Storm Alexander 10 Payson (UT) 4 25:31.4 100.8 121 133
134 Maizy Hall 11 Payson (UT) 5 25:43.4 100.1 122 134
135 Danae Liguori 9 Apache Junction (AZ) 4 25:49.5 123 135
136 Iridiana Ibarra 10 Florence (AL) 3 26:00.5 98.9 124 136
137 Kara Van Zile 10 Payson (UT) 6 26:02.2 98.8 125 137
138 Vivika Pedroza 9 Douglas (NV) 4 26:02.2 126 138
139 Jennifer Widdicombe 11 Estrella Foothills (AZ) 6 26:21.3 97.7 127 139
140 Rachel Wynia 11 Estrella Foothills (AZ) 7 26:21.5 97.6 128 140
141 Madison Hall 10 Florence (AL) 4 26:24.7 97.4 129 141
142 Kendra Heninger 12 Apache Junction (AZ) 5 26:27.9 97.2 130 142
143 Hannah Cundiff 9 Florence (AL) 5 26:31.2 97.0 131 143
144 Alex Peters 12 Empire (AZ) 6 26:40.7 96.5 132 144
145 Tiara Arias 9 Douglas (NV) 5 26:52.7 133 145
146 Maddie Ford 10 Empire (AZ) 7 27:04.3 95.1 134 146
147 Diamond Prince 12 Sahuarita (AZ) 5 27:19.1 94.3 135 147
148 Scottie Alegria 9 Wickenburg (AZ) 4 27:44.8 92.8 136 148
149 Alondra Gonzales 12 Douglas (NV) 6 27:48.8 92.6 137 149
150 Cecilia Holguin 12 Sahuarita (AZ) 6 28:00.2 92.0 138 150
151 Cherie Warren 12 Florence (AL) 6 28:10.3 91.5 139 151
152 Savannah Bates 12 Seton Catholic (OH) 6 28:25.0 90.7 140 152
153 Alyssa Valencia 11 Apache Junction (AZ) 6 28:51.1 89.3 141 153
154 Gillian Newman 10 Florence (AL) 7 29:00.3 88.9 142 154
155 Kiki York 11 Payson (UT) 7 30:43.2 83.9 143 155
156 Mariana Arenas 12 Wickenburg (AZ) 5 32:00.7 80.6 144 156
157 Kristin Sigler 12 Apache Junction (AZ) 7 33:15.5 77.6 145 157